CZ-6A DEB, 55512

Orbit data source: Space-Track

CZ-6A DEB, 55512 is space debris in SSO originally from a launch on Fri, 11 Nov 2022 UTC launched from the Taiyaun Space Center, China (TSC). Debris objects in space refer to the collection of defunct objects orbiting the Earth. Examples of debris include non-operational satellites, rocket bodies, and fragments generated from explosions, collisions, or faulty payload assembly.

Loading next visibility...
Identifier
55512, 2022-151XJ
Orbit
SSO
Country
Flag of CNCN / PRC
Related business
Manufacturer
SAST
Mission
Spacecraft
Bus & Motor
Unknown
Mass
Unknown
Launch date (UTC)
2022-11-11 (4 years ago)
Launch vehicle
Unknown
Launch site
Taiyaun Space Center, China (TSC)
Object type
Payload
Rocket body
Debris
Shape & HBR
Unknown shape, 1.1 m
Radar Cross Section
Medium (>0.1 m² and <1 m²)

Expand to show TLE details & history
Last TLE update: 6 hours ago

TLE from 6 hours ago
0 CZ-6A DEB
1 55512U 22151XJ  26236.46896213  .00005225  00000-0  15991-2 0  9998
2 55512  98.6846 252.8915 0047309 289.8743  69.7351 14.41555805177786
Epoch: 2026-08-24T11:15Z
TLE epoch observation values (Epoch: 2026-08-24T11:15:18.328Z)
Latitude
0.00004°
Longitude
111.3149°
Altitude
744.76 km
Speed
7.488 km/s
True Right ascension
16h 51m 33s
True Declination
0° 00' 00"
Sunlit
Object was in daylight at epoch
Visualization orbit readout
Latitude
Unknown
Longitude
Unknown
Altitude
Unknown
Speed
Unknown
Apparent Right ascension
Unknown
Apparent Declination
Unknown
Sunlit
N/A
Visualization observer readout
Local Sidereal Time
08:05:33
Azimuth
Unknown
Elevation
Unknown
Doppler factor
Unknown
Orbital elements
Apogee altitude
784.216 km
Perigee altitude
716.766 km
Semi-major axis
7,128.628 km
Eccentricity
0.00473
Inclination
98.6846°
RAAN
252.8915°
Arg. of periapsis
289.8743°
True anomaly
70.2447°
Mean anomaly
69.7351°
Eccentric anomaly
69.9898°
Mean motion
3.60607 °/min
Orbital period
99.83 mins
BSTAR
0.0015991
Loading maneuver chart data...
Computing Atmospheric mass density...
Loading historical data...
Loading historical data...
Loading historical data...
Loading historical data...
Loading historical data...
Loading historical data...
Loading historical data...

Documentation

Showing up to 5 results
|